Terug naar catalogus

STARLINK-5453

ActiefCommunicatieVLEO
NORAD 54773·PAYLOAD·🇺🇸 United States

Gelanceerd Dec 17, 2022 vanaf Cape Canaveral Space Force Station

Loading…

Volgende Passages (komende 24 uur)

TLE

VersSource: CelesTrak SupGP

Epoch: Sep 15, 2026, 03:08 UTC

1 54773C 22175R   26258.13104167 -.00026626  00000+0 -78664-3 0  2584
2 54773  53.1581 262.8847 0001294  81.8366 263.8112 15.34405758    12

Volg STARLINK-5453 in realtime met AllMySat

Download on the App Store